SCP
0 0 0 0 0 0 0 0 0 0 0 0 0 0 0 0 0 0 0 0 0 0 0 0 0 0 0 0 0 0 0 0 0 0 0 0 0 0 0 0 0 0 0 0
0 0 0 0 0 0 0 0 0 0 0 0 0 0 0 0 0 0 0 0 0 0 0 0 0 0 0 0 0 0 0 0 0 0 0 0 0 0 0 0 0 0 0 0
0 0 -0 -0 0 0 0 0 0 0 0 0 0 0 0 0 0 0 0 0 0 0 0 0 0 0 0 0 0 0 0 0 0 0 0 0 0 0 0 0 0 0 0 0
0 0 -0 -0 -0 -0 0 0 0 0 0 0 0 0 0 0 0 0 0 0 0 0 0 0 0 0 0 0 0 0 0 0 0 0 0 0 0 0 0 0 0 0 0 0
0 0 0 -0 -0 -0 -0 0 0 0 0 0 0 0 0 0 0 0 0 0 0 0 0 0 0 0 0 0 0 0 0 0 0 0 0 0 0 0 0 0 0 0 0 0
0 0 0 -0 -0 -0 -0 -0 0 0 0 0 0 0 0 0 0 0 0 0 0 0 0 0 0 0 0 0 0 0 0 0 0 0 0 0 0 0 0 0 0 0 0 0
0 0 0 -0 -0 -0 -0 0 0 0 0 0 0 0 0 0 0 0 0 0 0 0 0 0 0 0 0 0 0 0 0 0 0 0 0 0 0 0 0 0 0 0 0 0
0 0 0 -0 -0 -0 0 0 0 0 0 0 0 0 0 0 0 0 0 0 0 0 0 0 0 0 0 0 0 0 0 0 0 0 0 0 0 0 0 0 0 0 0 0
0 0 0 0 0 0 0 0 0 0 0 0 0 0 0 0 0 0 0 0 0 0 0 0 0 0 0 0 0 0 0 0 0 0 0 0 0 0 0 0 0 0 0 0
0 0 0 0 0 0 0 0 0 0 0 0 0 0 0 0 0 0 0 0 0 0 0 0 0 0 0 0 0 0 0 0 0 0 0 0 0 0 0 0 0 0 0 0
0 0 0 0 0 0 0 0 0 0 0 0 0 0 0 0 0 0 0 0 0 0 0 0 0 0 0 0 0 0 0 0 0 0 0 0 0 0 0 0 0 0 0 0
0 0 0 0 0 0 0 0 0 0 0 0 0 0 0 0 0 0 0 0 0 0 0 0 0 0 0 0 0 0 0 0 0 0 0 0 0 0 0 0 0 0 0 0
0 0 0 0 0 0 0 0 0 0 0 0 0 0 0 0 0 0 0 0 0 0 0 0 0 0 0 0 0 0 0 0 0 0 0 0 0 0 0 0 0 0 0 0
0 0 0 0 0 0 0 0 0 0 0 0 0 0 0 0 0 0 0 0 0 0 0 0 0 0 0 0 0 0 0 0 0 0 0 0 0 0 0 0 0 0 0 0
0 0 0 0 0 0 0 0 0 0 0 0 0 0 0 0 0 0 0 0 0 0 0 0 0 0 0 0 0 0 0 0 0 0 0 0 0 0 0 0 0 0 0 0
0 0 0 0 0 0 -0 -0 0 0 0 0 0 0 0 0 0 0 0 0 0 0 0 0 0 0 0 0 0 0 0 0 0 0 0 0 0 0 0 0 0 0 0 0
0 0 0 0 0 0 -0 -0 0 0 0 0 0 0 0 0 0 0 0 0 0 0 0 0 0 0 0 0 0 0 0 0 0 0 0 0 0 0 0 0 0 0 0 0
0 0 0 0 0 0 0 0 0 0 0 0 0 0 0 0 0 0 0 0 0 0 0 0 0 0 0 0 0 0 0 0 0 0 0 0 0 0 0 0 0 0 0 0
0 0 0 0 0 0 0 0 0 0 0 0 0 0 0 0 0 0 0 0 0 0 0 0 0 0 0 0 0 0 0 0 0 0 0 0 0 0 0 0 0 0 0 0
0 0 0 0 0 0 0 0 0 0 0 0 0 0 0 0 0 0 0 0 0 0 0 0 0 0 0 0 0 0 0 0 0 0 0 0 0 0 -0 0 0 0 0 0
0 0 0 0 0 0 0 0 0 0 0 0 0 0 0 0 0 0 0 0 0 0 0 0 0 0 0 0 0 0 0 0 0 0 0 0 0 0 0 0 0 0 0 0
0 0 0 0 0 0 0 0 0 0 0 0 0 0 0 0 0 0 0 0 0 0 0 0 0 0 0 0 0 0 0 0 0 0 0 0 0 0 0 0 0 0 0 0
0 0 0 0 0 0 0 0 0 0 0 0 0 0 0 0 0 0 0 0 0 0 0 0 0 0 0 0 0 0 0 0 0 0 0 0 0 0 0 0 0 0 0 0
0 0 0 0 0 0 0 0 0 0 0 0 0 0 0 0 0 0 0 0 0 0 0 0 0 0 0 0 0 0 0 0 0 0 0 0 0 0 0 0 0 0 0 0
0 0 0 0 0 -0 -0 -0 -0 0 0 0 0 0 0 0 0 0 0 0 0 0 0 0 0 0 0 0 0 0 0 0 0 0 0 0 0 0 0 0 0 0 0 0
0 0 0 0 0 -0 -0 -0 -0 0 0 0 0 0 0 0 0 0 0 0 0 0 0 0 0 0 0 0 0 0 0 0 0 0 0 0 0 0 0 0 0 0 0 0
0 0 0 0 0 -0 -0 -0 -0 0 0 0 0 0 0 0 0 0 0 0 0 0 0 0 0 0 0 0 0 0 0 0 0 0 0 0 0 0 0 0 0 0 0 0
Wind_Speed
6 5 3 4 5 4 6 6 7 8 9 11 8 7 6 5 4 4 5 4 2 2 2 3 3 3 3 3 3 3 3 2 2 1 0 1 1 1 1 1 2 2 2 2
4 3 3 5 7 7 8 6 8 9 11 8 6 4 5 5 4 4 5 4 3 2 3 3 3 3 3 3 3 3 2 3 2 2 1 1 1 1 1 1 1 2 2 2
4 5 4 7 7 7 6 6 6 9 10 5 5 5 5 5 4 4 3 3 3 2 2 3 3 2 3 3 3 3 3 3 3 2 2 1 1 1 1 1 1 1 1 1
2 4 5 7 1 4 6 7 7 7 6 5 5 5 4 3 3 3 2 2 2 2 2 2 2 2 2 2 3 3 3 3 3 2 2 1 1 1 1 1 1 1 0 1
1 2 9 7 2 2 4 7 5 8 8 6 5 4 4 3 2 1 2 2 2 2 1 2 2 2 2 3 3 3 3 3 3 2 1 1 1 1 1 1 1 1 0 0
2 2 7 6 1 1 1 6 4 4 6 5 2 3 5 3 3 2 3 2 2 2 2 2 3 2 2 3 3 3 3 3 3 2 1 1 1 1 1 1 0 1 1 0
4 5 10 5 1 1 2 7 4 3 4 3 3 5 4 3 2 2 2 2 2 2 2 2 2 2 2 2 3 3 3 3 3 2 1 1 1 1 1 1 1 1 1 1
4 5 10 3 4 5 7 3 2 3 3 3 5 4 3 2 2 2 2 2 2 2 3 3 3 2 2 3 3 2 3 3 3 2 1 1 1 1 1 1 1 1 1 1
9 9 4 4 6 5 2 4 4 3 4 3 4 4 3 2 2 2 1 1 1 1 2 3 3 1 1 3 3 2 2 2 2 2 2 1 1 1 0 0 0 0 0 0
6 9 7 7 7 6 5 5 5 4 3 3 4 4 3 3 2 2 1 1 1 1 2 3 3 2 1 2 2 2 2 2 2 2 1 1 1 0 0 1 1 1 1 1
7 8 6 6 8 8 6 5 5 4 3 3 4 4 3 3 2 2 2 1 1 1 1 3 3 3 3 2 2 2 2 2 2 1 1 1 1 0 1 1 2 2 1 2
9 7 5 6 5 5 5 6 6 4 4 3 4 4 3 3 2 1 1 1 1 1 1 2 2 3 3 2 1 1 2 2 1 1 1 0 0 1 2 1 1 2 2 1
7 4 5 6 6 4 4 5 4 4 5 4 3 3 2 2 2 1 1 1 1 2 2 2 2 3 3 2 1 1 1 2 1 1 1 0 0 0 1 2 3 2 1 1
6 4 5 6 6 5 4 3 3 2 3 3 2 1 1 1 1 1 2 2 2 1 2 1 2 3 3 2 1 1 1 2 2 1 1 1 1 1 0 0 1 2 2 2
7 7 7 5 4 4 2 1 1 2 2 2 1 1 1 1 2 2 2 2 1 1 2 1 2 3 3 2 2 2 2 1 1 1 1 1 1 1 1 0 0 0 1 2
4 4 4 4 5 4 2 2 3 3 3 2 2 2 2 2 2 1 1 1 1 1 2 2 3 3 3 2 2 2 1 2 1 1 1 0 0 1 1 1 1 0 0 1
3 4 5 5 5 5 4 4 4 3 3 3 3 2 1 1 1 1 1 1 2 2 2 2 3 3 2 2 2 1 1 1 1 0 0 0 1 1 1 1 1 0 1 1
7 7 6 5 5 5 4 3 3 3 3 3 2 1 1 1 2 2 2 1 1 2 2 2 3 3 2 2 1 1 1 1 1 1 1 1 1 1 1 1 1 1 0 1
4 5 5 5 4 4 3 3 3 2 2 2 2 2 2 2 2 2 1 1 1 2 3 3 4 2 2 2 2 1 1 0 0 0 1 1 0 1 1 1 1 1 0 0
3 3 3 3 2 2 2 2 1 1 1 2 2 1 2 2 2 2 2 2 3 3 3 3 3 2 2 2 2 0 1 1 0 0 0 1 1 1 1 1 1 1 0 0
2 2 2 2 1 1 1 2 2 1 1 1 2 2 3 2 2 2 2 3 3 2 3 3 2 2 2 2 2 0 1 1 1 1 1 1 1 1 1 1 1 1 1 0
2 2 1 1 1 1 0 1 1 1 1 1 1 2 2 2 2 2 3 3 3 4 2 2 2 3 2 2 0 1 1 1 1 1 1 1 1 1 1 1 1 1 1 1
2 1 1 1 1 0 0 0 1 1 1 2 2 3 3 2 2 2 3 2 2 4 2 2 3 4 2 0 0 1 1 1 1 1 1 1 1 1 1 1 1 1 1 1
1 1 0 0 1 1 1 1 1 1 1 2 2 3 2 2 2 2 2 3 4 4 2 3 4 3 2 0 0 1 1 1 1 1 1 1 1 1 1 1 1 1 1 1
1 1 1 1 1 1 1 0 0 1 1 1 2 2 2 2 2 2 2 2 4 3 2 3 4 3 1 0 0 1 1 1 1 1 1 1 1 1 1 1 1 1 1 1
1 1 1 2 2 1 1 1 1 1 1 1 2 1 1 1 2 2 1 2 2 2 2 1 2 2 1 0 1 1 1 1 0 0 0 0 0 1 0 0 0 1 1 1
0 0 1 1 1 1 2 2 2 2 2 2 2 2 1 1 1 1 1 1 1 1 1 1 1 1 1 1 0 0 0 0 0 0 0 0 0 0 1 1 0 0 0 0
Wind_Direction
261 272 256 253 254 227 213 218 226 255 260 276 291 295 301 306 312 327 331 329 341 352 359 4 11 10 12 6 7 10 14 11 352 338 61 90 119 149 158 173 180 167 161 165
290 292 270 269 260 241 237 240 251 269 273 276 291 304 314 316 312 314 317 330 346 1 5 2 1 358 3 8 7 17 15 4 1 15 46 67 87 109 122 133 148 151 162 170
284 316 334 277 243 216 228 228 219 239 255 286 301 302 296 297 295 282 292 322 340 347 355 352 346 352 358 359 6 20 18 11 9 10 19 35 78 92 100 111 130 146 159 167
304 11 255 250 196 208 235 251 229 246 269 278 276 290 292 289 285 285 292 311 329 341 352 354 354 354 359 12 18 17 18 15 11 12 16 29 63 74 74 96 114 115 117 176
142 270 277 288 249 192 218 270 236 243 268 287 308 318 311 310 297 267 297 312 315 323 340 354 353 352 5 14 17 16 12 4 359 5 10 23 55 57 48 68 88 106 124 128
147 220 252 262 266 235 125 284 265 234 258 275 336 317 293 322 323 324 332 344 349 356 9 7 354 5 22 9 12 1 350 343 345 356 0 7 29 56 48 57 62 76 60 33
198 236 263 258 247 125 171 262 291 243 248 244 224 236 273 304 314 327 338 349 2 8 3 346 354 19 16 2 351 341 345 350 355 358 355 20 50 66 74 66 62 55 50 4
176 218 256 201 143 192 231 282 283 265 252 242 251 271 292 307 318 328 341 356 6 15 354 347 1 25 9 346 335 347 354 355 356 360 5 34 71 62 68 96 85 56 44 354
199 221 251 184 211 238 254 264 265 259 262 253 261 271 284 293 296 302 307 327 347 11 353 347 354 14 1 326 336 353 2 356 356 5 28 41 84 94 67 89 130 188 204 271
253 262 255 249 256 261 251 252 262 258 257 241 246 260 267 273 281 288 295 304 327 13 351 336 343 351 332 326 339 356 358 349 351 9 23 30 21 66 183 203 213 224 236 269
255 271 288 265 244 248 254 258 264 273 259 239 239 253 249 251 261 262 285 304 331 321 309 312 331 337 333 336 358 2 346 339 346 358 5 18 6 322 267 247 235 225 234 240
233 233 222 260 266 240 237 248 249 251 268 263 233 240 241 238 243 249 276 299 314 304 297 307 325 326 326 330 339 346 336 333 335 344 339 356 15 14 6 343 324 296 272 277
238 249 242 264 274 255 242 251 251 241 243 257 248 233 227 224 230 234 265 271 269 278 287 300 313 314 314 319 329 322 306 302 296 279 256 254 244 105 11 11 17 13 353 330
244 248 263 256 260 264 260 259 259 260 258 253 242 212 203 214 237 245 256 264 268 281 291 295 306 304 306 313 314 311 298 288 275 253 240 234 221 201 199 264 353 352 352 356
245 235 243 263 273 277 275 261 255 275 283 287 265 198 191 203 232 255 267 279 290 295 300 305 303 302 311 306 296 290 286 273 257 244 242 223 194 167 159 150 140 339 345 353
260 256 250 256 261 267 265 249 241 257 266 267 261 245 226 216 229 255 261 227 209 277 291 297 292 296 305 296 291 287 275 273 277 253 233 198 158 158 158 157 165 195 296 322
228 247 247 256 256 256 250 242 235 240 246 245 244 244 228 214 244 268 273 254 242 262 270 271 282 298 301 295 285 275 267 266 277 303 189 196 176 180 183 180 183 222 278 294
235 239 236 236 240 246 256 251 237 237 238 236 228 205 207 218 243 261 274 293 305 304 289 272 284 299 298 297 286 270 263 258 243 202 186 185 178 175 164 167 179 199 288 311
250 247 247 246 239 231 240 243 239 234 232 210 197 213 222 234 243 253 268 272 268 281 290 292 297 306 295 287 294 251 247 248 241 187 173 192 170 144 149 161 174 195 244 307
273 259 247 247 239 219 227 234 215 224 228 198 192 214 246 257 250 248 254 251 247 254 274 288 295 289 280 277 283 232 218 227 215 193 161 155 163 164 166 172 180 194 211 199
286 271 242 228 225 209 193 178 176 220 243 202 199 223 244 259 249 233 238 271 275 272 280 286 294 279 274 278 277 204 211 212 199 189 183 181 177 178 177 175 183 201 198 193
284 269 241 192 159 183 189 163 172 197 244 239 233 228 235 255 260 259 249 247 270 291 305 287 280 279 282 285 230 196 204 206 200 191 190 185 181 188 194 192 193 202 201 191
295 279 239 184 174 176 56 136 194 207 234 237 231 229 233 242 239 240 272 275 280 289 302 278 285 293 300 293 196 198 201 209 212 213 208 201 198 197 196 196 198 197 195 197
286 270 229 118 118 125 273 286 270 252 256 261 248 240 234 247 265 249 253 276 286 297 298 287 296 301 315 35 170 195 204 210 216 215 209 196 190 192 196 194 196 202 193 188
226 212 190 167 182 217 232 229 348 292 286 290 280 269 251 230 238 262 273 268 277 296 296 292 297 309 342 356 209 220 224 226 211 187 187 192 204 202 203 200 195 202 196 194
220 212 214 216 218 215 206 191 221 248 253 286 294 283 277 270 260 261 266 271 280 298 303 296 302 307 317 283 253 245 246 269 301 354 131 168 189 191 195 196 206 218 218 214
199 205 202 239 243 216 203 202 218 236 237 247 265 270 273 276 271 271 274 285 291 293 294 296 303 299 289 277 264 268 275 302 259 208 164 178 190 200 194 191 212 238 232 217